Weather History for Quincy Muni, Quincy, FL, FL

Change the Weather History Date:

Tuesday, April 15, 2014

  Actual Average (KTLH) Record (KTLH)
Temperature  
Mean Temperature 58 °F 66 °F  
Max Temperature 69 °F 80 °F 91 °F (1981)
Min Temperature 46 °F 52 °F 34 °F (1918)
Degree Days  
Heating Degree Days 8    
Month to date heating degree days  
Since 1 July heating degree days  
Cooling Degree Days 0    
Month to date cooling degree days  
Year to date cooling degree days  
Growing Degree Days 8 (Base 50)    
Moisture  
Dew Point 53 °F    
Average Humidity 83    
Maximum Humidity 100    
Minimum Humidity 67    
Precipitation  
Precipitation 0.07 in 0.09 in 4.42 in (1947)
Month to date precipitation 1.76  
Year to date precipitation 16.89  
Sea Level Pressure  
Sea Level Pressure 29.92 in    
Wind  
Wind Speed 9 mph (NW)    
Max Wind Speed 16 mph    
Max Gust Speed 25 mph    
Visibility 10 miles    
Events      
T = Trace of Precipitation, MM = Missing Value Source: NWS Daily Summary

Daily Weather History Graph

Daily Weather History Graph

Search for Another Location

Airport:

Trip Planner

Search our weather history database for the weather conditions in past years. The results will help you decide how hot, cold, wet, or windy it might be!

Date:

Astronomy

Apr. 15, 2014 Rise Set
Actual Time 7:10 AM EDT 8:06 PM EDT
Civil Twilight 6:46 AM EDT 8:30 PM EDT
Nautical Twilight 6:16 AM EDT 9:00 PM EDT
Astronomical Twilight 5:47 AM EDT 9:30 PM EDT
Moon 8:43 PM EDT (4/15) 7:18 AM EDT (4/15)
Length of Visible Light 13h 44m
Length of Day
12h 55m
Full, 100% of the Moon is Illuminated
Apr 15
Full
Apr 22
Last Quarter
Apr 29
New
May 6
First Quarter
May 14
Full

Hourly Weather History & Observations

Time (EDT) Temp. Windchill Dew Point Humidity Pressure Visibility Wind Dir Wind Speed Gust Speed Precip Events Conditions
12:15 AM 68.0 °F - 66.2 °F 94% 29.86 in 10.0 mi SE 6.9 mph - N/A   Overcast
12:35 AM 68.0 °F - 66.2 °F 94% 29.85 in 10.0 mi SE 8.1 mph - N/A   Mostly Cloudy
12:55 AM 68.0 °F - 66.2 °F 94% 29.84 in 10.0 mi SSE 10.4 mph - N/A   Mostly Cloudy
1:15 AM 68.0 °F - 66.2 °F 94% 29.84 in 10.0 mi SE 6.9 mph - N/A   Mostly Cloudy
1:35 AM 68.0 °F - 66.2 °F 94% 29.83 in 10.0 mi SE 6.9 mph - N/A   Mostly Cloudy
1:55 AM 68.0 °F - 66.2 °F 94% 29.79 in 10.0 mi SSE 11.5 mph 17.3 mph N/A   Overcast
2:15 AM 68.0 °F - 66.2 °F 94% 29.79 in 10.0 mi SE 9.2 mph 19.6 mph N/A   Overcast
2:35 AM 69.8 °F - 66.2 °F 88% 29.76 in 10.0 mi SE 13.8 mph 20.7 mph N/A   Overcast
7:55 AM 66.2 °F - 66.2 °F 100% 29.80 in 9.0 mi South 6.9 mph - 0.03 in   Overcast
8:15 AM 66.2 °F - 66.2 °F 100% 29.80 in 3.0 mi SSE 6.9 mph - 0.01 in   Overcast
10:35 AM 68.0 °F - 68.0 °F 100% 29.80 in 9.0 mi Calm Calm - 0.02 in   Mostly Cloudy
10:55 AM 68.0 °F - 68.0 °F 100% 29.82 in 6.0 mi West 8.1 mph - 0.03 in   Overcast
11:15 AM 66.2 °F - 66.2 °F 100% 29.83 in 9.0 mi West 11.5 mph 16.1 mph N/A   Overcast
2:35 PM 55.4 °F - 50.0 °F 82% 29.90 in 10.0 mi NW 11.5 mph 23.0 mph N/A   Overcast
3:35 PM 57.2 °F - 48.2 °F 72% 29.92 in 10.0 mi NW 12.7 mph 23.0 mph N/A   Overcast
4:15 PM 55.4 °F - 48.2 °F 77% 29.94 in 10.0 mi NW 13.8 mph 24.2 mph N/A   Overcast
4:35 PM 55.4 °F - 46.4 °F 72% 29.94 in 10.0 mi NW 9.2 mph - N/A   Overcast
4:55 PM 53.6 °F - 46.4 °F 77% 29.95 in 10.0 mi NNW 12.7 mph 24.2 mph N/A   Overcast
5:15 PM 53.6 °F - 44.6 °F 72% 29.96 in 10.0 mi WNW 16.1 mph 25.3 mph N/A   Overcast
5:35 PM 53.6 °F - 44.6 °F 72% 29.97 in 10.0 mi NW 10.4 mph 20.7 mph N/A   Overcast
5:55 PM 51.8 °F - 44.6 °F 76% 29.98 in 10.0 mi NW 11.5 mph 23.0 mph N/A   Overcast
6:15 PM 51.8 °F - 42.8 °F 71% 29.98 in 10.0 mi NNW 13.8 mph 24.2 mph N/A   Overcast
6:35 PM 51.8 °F - 41.0 °F 67% 29.98 in 10.0 mi NNW 16.1 mph 24.2 mph N/A   Overcast
6:55 PM 51.8 °F - 41.0 °F 67% 29.98 in 10.0 mi North 10.4 mph 21.9 mph N/A   Overcast
7:15 PM 50.0 °F - 41.0 °F 71% 29.98 in 10.0 mi NNW 8.1 mph 18.4 mph N/A   Overcast
9:15 PM 48.2 °F - 41.0 °F 76% 30.06 in 10.0 mi NW 5.8 mph - N/A   Clear
9:55 PM 48.2 °F - 41.0 °F 76% 30.08 in 10.0 mi NW 6.9 mph - N/A   Clear
10:35 PM 46.4 °F 42.9 °F 39.2 °F 76% 30.09 in 10.0 mi NNW 6.9 mph - N/A   Clear
10:55 PM 46.4 °F 44.3 °F 39.2 °F 76% 30.10 in 10.0 mi NNW 4.6 mph - N/A   Clear
11:35 PM 46.4 °F 43.5 °F 39.2 °F 76% 30.11 in 10.0 mi NNW 5.8 mph - N/A   Clear